Weather Service Report


832 
ASUS45 KTFX 010010
RWRMT 
MONTANA REGIONAL WEATHER ROUNDUP
NATIONAL WEATHER SERVICE GREAT FALLS MT
600 PM MDT SUN APR 30 2017

NOTE: "FAIR" INDICATES FEW OR NO CLOUDS BELOW 12000 FEET WITH NO
SIGNIFICANT WEATHER AND/OR OBSTRUCTIONS TO VISIBILITY.

MTZ001>007-043-010100-
WEST OF THE DIVIDE
  
CITY           SKY/WX    TMP DP  RH WIND       PRES   REMARKS
KALISPELL      CLOUDY    52  34  50 W8G22     29.96R                  
MISSOULA       CLOUDY    54  31  41 NW14      30.01R                  
BUTTE          CLOUDY    52  21  29 W17G23    29.96R                  
MULLAN PASS    FLURRIES  36  32  85 W8G20     30.03R WCI  30          
ANACONDA         N/A     52  27  37 W16G28    29.97R                  
DEER LODGE       N/A     54  27  35 W12G21    29.97R                  
EUREKA           N/A     48  36  61 S6        29.98R                  
HAMILTON         N/A     54  32  43 NW5       30.03R                  
LIBBY            N/A     52  37  58 N6        29.98R                  
$$

MTZ008-052>055-010100-
SOUTHWEST MONTANA
  
CITY           SKY/WX    TMP DP  RH WIND       PRES   REMARKS
BOZEMAN        CLOUDY    57  32  38 W15       29.92R                  
DILLON         CLOUDY    56  31  38 SW16      29.96R                  
W YELLOWSTONE  CLOUDY    45  27  49 SW17G28   30.00S                  
THREE FORKS      N/A     58  58 100 W12       29.91S                  
$$

MTZ009-010-012-014-046-048-049-054-010100-
EAST SLOPES AND CENTRAL MONTANA
  
CITY           SKY/WX    TMP DP  RH WIND       PRES   REMARKS
CUT BANK       SUNNY     53  30  41 W29G35    29.86S                  
GREAT FALLS    PTSUNNY   57  29  34 W21       29.87R                  
MALMSTROM AFB  CLOUDY    57  30  35 W15G24    29.87R                  
HELENA         MOSUNNY   59  34  39 SW7G21    29.91R                  
AUGUSTA          N/A     54  27  34 W24G30    29.89S                  
BOWMANS CRNR   PTSUNNY   54  30  40 W22       29.89R                  
CHOTEAU          N/A     55  28  35 W18G26    29.91S                  
FAIRFIELD        N/A     56  30  37 NW15      29.88R                  
POWER          PTSUNNY   55  27  33 W24G31    29.87R                  
RAYNESFORD     PTSUNNY   56  28  34 W25G31    29.87R                  
ULM            PTSUNNY   59  34  40 W18       29.88R                  
$$

MTZ011-013-016-021-045-047-050-051-010100-
NORTH CENTRAL MONTANA
  
CITY           SKY/WX    TMP DP  RH WIND       PRES   REMARKS
HAVRE          CLOUDY    58  31  35 NW17G30   29.80R                  
LEWISTOWN      CLOUDY    53  37  54 SW17      29.87R                  
CHINOOK          N/A     57  36  44 NW12G23   29.79R                  
DENTON         PTSUNNY   54  36  49 NW23      29.83R                  
FORT BENTON      N/A     63  30  29 MISG      29.84F                  
GEYSER         LGT RAIN  52  37  55 W20       29.87R                  
GRASS RANGE    PTSUNNY   56  35  45 W23G36    29.84R                  
JUDITH GAP       N/A     52  32  46 NW9       29.89S                  
STANFORD       PTSUNNY   55  30  38 NW18G28   29.87R                  
WINIFRED       PTSUNNY   53  35  50 NW15      29.86R                  
$$

MTZ017>020-022>027-061-062-010100-
NORTHEAST MONTANA
  
CITY           SKY/WX    TMP DP  RH WIND       PRES   REMARKS
GLASGOW        CLOUDY    61  33  35 N7        29.79S                  
JORDAN           N/A     61  36  39 SW9       29.81S                  
SIDNEY         CLOUDY    63  30  28 SW13      29.81F                  
WOLF POINT     MOSUNNY   67  32  27 NW12      29.78F                  
PLENTYWOOD       N/A     63  28  27 W8        29.78F                  
POPLAR           N/A     63  32  31 W9        29.79S                  
SCOBEY           N/A     62  30  30 W15       29.79S                  
$$

MTZ028>42-056>058-010100-
SOUTHCENTRAL AND SOUTHEAST MONTANA
  
CITY           SKY/WX    TMP DP  RH WIND       PRES   REMARKS
BAKER            N/A    N/A N/A N/A MISG      29.85F                  
BILLINGS       PTSUNNY   61  32  33 NW13      29.87S                  
LIVINGSTON     CLOUDY    53  36  52 W15       29.91S                  
MILES CITY     PTSUNNY   64  33  31 NW7       29.83F                  
BIG TIMBER     MOSUNNY   52  37  58 SW15      29.93S                  
EKALAKA          N/A     59  22  24 W5        29.86F                  
LAUREL           N/A     59  34  39 W2        29.88R                  
ROUNDUP          N/A     58  33  38 W8        29.79S                  
$$

REGIONAL REPORTS...DAKOTAS
  
CITY           SKY/WX    TMP DP  RH WIND       PRES   REMARKS
WILLISTON      CLOUDY    65  24  21 S10       29.80F                  
MINOT          SUNNY     66  17  15 MISG      29.85S                  
DICKINSON      SUNNY     61  14  16 SW10      29.82F                  
BEACH          PTSUNNY   63  25  23 W9G18     29.87S                  
TIOGA          PTSUNNY   64  16  15 SW15      29.83S                  
WATFORD CITY   PTSUNNY   66  19  16 SW9G17    29.81F                  
BISMARCK       MOSUNNY   63  27  25 E6        29.86F                  
GRAND FORKS    PTSUNNY   62  25  24 E13       29.89S                  
FARGO          PTSUNNY   59  17  19 E14       29.85F                  
BUFFALO SD       N/A     62  19  19 VRB3      29.80F                  
RAPID CITY     SUNNY     58  21  24 N16       29.85F                  
$$

REGIONAL REPORTS...WYOMING/IDAHO/WASHINGTON
  
CITY           SKY/WX    TMP DP  RH WIND       PRES   REMARKS
GILLETTE       SUNNY     56  33  42 NW9       29.90R                  
SHERIDAN       CLOUDY    57  35  43 SW7       29.89S                  
BUFFALO WY     CLOUDY    52  26  36 W3        29.93S                  
CODY           PTSUNNY   55  28  35 VRB6G21   29.92S                  
YELLOWSTONE LA   N/A     39  26  59 VRB7      30.04S                  
IDAHO FALLS    CLOUDY    57  35  43 SW13      30.00F                  
SALMON         CLOUDY   N/A N/A N/A MISG        N/A                   
BOISE          MOSUNNY   64  37  36 N14       30.05S                  
SPOKANE        PTSUNNY   59  31  34 W21       30.02R                  
$$

REGIONAL REPORTS...ALBERTA
  
CITY           SKY/WX    TMP DP  RH WIND       PRES   REMARKS
EDMONTON       CLOUDY    43  39  87 N6        29.85S                  
CALGARY        PTSUNNY   50  27  40 N13       29.86R                  
LETHBRIDGE     PTSUNNY   54  32  43 NW18G26   29.83R                  
MEDICINE HAT   PTSUNNY   59  34  38 NW13      29.77R                  
WATERTON GATE    N/A     48  32  53 SW12G21     N/A                   
MILK RIVER       N/A     57  27  30 W25G33      N/A                   
$$

REGIONAL REPORTS...SASKATCHEWAN
  
CITY           SKY/WX    TMP DP  RH WIND       PRES   REMARKS
SWIFT CURRENT  PTSUNNY   57  32  38 W10       29.73S                  
REGINA         LGT RAIN  59  37  44 NW8       29.77F                  
SASKATOON      LGT RAIN  52  39  62 N12       29.78F                  
CYPRESS HILLS    N/A     52  23  32 W10G17      N/A                   
VAL MARIE        N/A     61  28  29 W17         N/A                   
ROCKGLEN         N/A     55  32  41 SW9         N/A                   
ASSINIBOIA       N/A     50  39  66 W10         N/A                   
$$
  

Return to Home page


Western Regional Climate Center, wrcc@dri.edu